Weather in Brignoles

France     43°24′21″N   6°03′59″E
temp.,
°C
wind,
m/s
gust,
m/s
humid.,
%
clouds,
%
prec.,
mm/h
press.,
hPa
HPBL,
m
15 may, sat
sat1523:00+12wnw61449100 0.0 1011925
02:00+10wnw41159100 0.0 1012372
05:00+7wnw2475100 0.0 101265
08:00+10wnw386833 0.0 1013312
11:00+13wnw4854100 0.0 1013744
14:00+13nw3660100 0.0 1013774
17:00+12nnw3470100 0.0 1013376
20:00+10nw2588100 0.2 1013238
16 may, sun
sun1623:00+10nw2589100 0.0 1013203
02:00+10wnw369085 0.0 1012185
05:00+10w3587100 0.0 1010134
08:00+11wnw2689100 0.1 1010219
11:00+17wnw476579 0.0 1010675
14:00+20nw61057100 0.0 10101195
17:00+17wnw61169100 0.0 10101018
20:00+14wnw6128323 0.1 1010959
17 may, mon
mon1723:00+13nw614683 0.1 10111041
02:00+11wnw614778 0.1 1011688
05:00+11wnw5136682 0.0 1011676
08:00+12wnw7145842 0.0 1012801
11:00+16wnw91438100 0.0 10121181
14:00+18wnw1015339 0.0 10121556
17:00+19nw814325 0.0 10122133
20:00+16nw610465 0.0 10131048
18 may, tue
tue1823:00+11wnw411655 0.0 1015251
02:00+11nw715605 0.0 1015736
05:00+9wnw51568100 0.0 1015626
08:00+10wnw614604 0.0 1016634
11:00+16wnw914380 0.0 10161445
14:00+18nw914310 0.0 10161868
17:00+18nw915310 0.0 10162013
20:00+15nw7134994 0.0 10181262
19 may, wed
wed1923:00+11wnw615560 0.0 1020803
02:00+11wnw715570 0.0 1019866
05:00+10wnw715591 0.0 1019896
08:00+11nw816570 0.0 10191013
11:00+16nw913400 0.0 10181451
14:00+18nw913340 0.0 10181716
17:00+19nw91335100 0.0 10181573
20:00+15nw814406 0.0 10191198